#timestamp,LO_Frequency,Hit,StdDev 
1711321215.1,286046998.1,N
1711321216.0,286046998.1,N
1711321235.8,286047001.1,N
1711321255.7,286046998.2,N
1711321275.5,286046998.2,N
1711321295.3,286046998.3,N
1711321315.2,286046999.3,N
1711321335.0,286046999.2,N
1711321335.9,286046999.2,N
1711321355.7,286046998.7,N
1711321375.6,286046999.5,N
1711321395.4,286046998.4,N
1711321415.3,286046996.5,N
1711321435.1,286046998.8,N
1711321455.8,286046998.7,N
1711321475.7,286046999.3,N
1711321495.5,286046998.5,N
1711321515.4,286046998.1,N
1711321535.2,286047000.0,N
1711321555.0,286046998.5,N
1711321555.9,286046998.5,N
1711321575.8,286047001.1,N
1711321595.6,286046998.3,N
1711321615.5,286046998.6,N
1711321635.3,286047001.1,N
1711321655.1,286047000.7,N
1711321675.9,286047001.0,N
1711321695.7,286047001.2,N
1711321715.5,286046998.2,N
1711321735.4,286047001.1,N
1711321755.2,286047000.7,N
1711321775.1,286046998.2,N
1711321776.0,286046998.2,N
1711321795.8,286047000.7,N
1711321815.6,286046998.7,N
1711321835.5,286047000.6,N
1711321855.3,286046998.3,N
1711321875.1,286046998.6,N
1711321925.9,286046998.7,E
1711321935.8,286047001.0,N
1711321955.7,286047000.4,P
1711321975.5,286047000.6,N
1711321995.4,286047000.8,Y
1711322015.2,286047000.0,P
1711322035.0,286046999.8,N
1711322035.9,286046999.8,N
1711322055.8,286047000.5,N
1711322075.6,286047000.1,N
1711322095.4,286047002.5,Y
1711322115.3,286047002.3,P
1711322135.1,286047002.4,N
1711322155.9,286047002.2,N
1711322175.7,286047002.0,N
1711322195.5,286047002.0,N
1711322215.4,286046999.9,N
1711322235.2,286047000.0,N
1711322255.0,286047000.4,N
1711322255.9,286047000.4,N
1711322275.8,286047000.9,N
1711322295.6,286046998.6,N
1711322315.5,286046998.4,N
1711322335.3,286046998.1,N
1711322355.1,286047000.8,N
1711322375.9,286047000.4,N
1711322395.7,286046998.2,N
1711322415.5,286046998.9,N
1711322435.4,286046999.0,N
1711322455.2,286046998.6,N
1711322475.1,286046998.6,N
1711322476.0,286046998.6,N
1711322495.8,286046998.6,N
1711322515.6,286046998.5,N
1711322535.5,286047000.1,N
1711322555.3,286047000.9,N
1711322575.2,286047001.0,N
1711322595.9,286047000.6,N
1711322615.7,286046999.8,N
1711322635.6,286047001.2,N
1711322655.4,286046999.2,N
1711322675.2,286046999.4,N
1711322695.1,286046999.0,N
1711322696.0,286046999.0,N
1711322715.8,286047001.2,N
1711322735.7,286046998.5,N
1711322755.5,286047000.7,N
1711322775.3,286047000.8,N
1711322795.2,286047000.4,N
1711322815.0,286047000.6,N
1711322815.9,286047000.6,N
1711322835.7,286047000.0,N
1711322855.6,286047000.9,N
1711322875.4,286047000.6,N
1711322895.3,286047000.9,N
1711322915.1,286047001.9,N
1711322935.8,286047002.4,N
1711322955.7,286047001.8,N
1711322975.5,286047002.8,N
1711322995.4,286047000.6,N
1711323015.2,286047001.0,N
1711323035.0,286047000.8,N
1711323035.9,286047000.8,N
1711323055.8,286047001.1,N
1711323075.0,286046998.4,N
1711323075.9,286046998.4,N
1711323095.8,286046998.9,N
1711323115.6,286046998.2,N
1711323135.4,286046998.4,N
1711323155.3,286046998.8,N
1711323175.1,286046999.6,N
1711323195.9,286046999.2,N
1711323215.7,286046999.6,N
1711323235.6,286046997.1,N
1711323255.4,286046996.7,N
1711323275.2,286046998.6,N
1711323295.1,286046998.9,N
1711323296.0,286046998.9,N
1711323315.8,286046998.3,N
1711323335.6,286046999.4,N
1711323355.5,286046999.1,N
1711323375.3,286046996.5,N
1711323395.2,286046997.6,N
1711323415.9,286046995.3,N
1711323435.7,286046996.2,N
1711323455.6,286046994.0,Y
1711323475.4,286046995.5,P
1711323495.3,286046997.9,N
1711323515.1,286046996.7,N
1711323516.0,286046996.7,N
1711323535.8,286046999.3,N
1711323555.7,286046997.6,N
1711323575.5,286046996.6,N
1711323595.3,286046996.9,N
1711323615.2,286046996.5,N
1711323635.0,286046996.7,N
1711323635.9,286046996.7,Y
1711323655.8,286046999.8,P
1711323675.6,286047000.7,N
1711323695.4,286046999.2,N
1711323715.3,286046998.8,N
1711323735.1,286046998.3,N
1711323755.9,286046998.6,N
1711323775.7,286046999.1,N
1711323795.5,286046999.0,N
1711323815.4,286046998.4,N
1711323835.2,286047000.5,N
1711323855.0,286047002.3,N
1711323855.9,286047002.3,N
1711323875.8,286046999.7,N
1711323895.6,286047002.5,N
1711323915.5,286047002.0,N
1711323935.3,286047002.1,N
1711323955.1,286047001.8,N
1711323975.9,286047001.4,N
1711323995.7,286047003.2,N
1711324015.5,286047003.6,N
1711324035.4,286047004.0,N
1711324055.2,286047001.9,N
1711324075.1,286047001.6,N
1711324076.0,286047001.6,N
1711324095.8,286047000.3,N
1711324145.7,286046999.9,E
1711324155.6,286047000.0,N
1711324175.4,286047002.2,P
1711324195.3,286047002.1,N
1711324215.1,286047001.9,N
1711324235.9,286047002.0,N
1711324255.7,286046999.8,N
1711324275.5,286046999.7,N
1711324295.4,286047002.7,N
1711324315.2,286047000.9,N
1711324335.0,286047000.2,N
1711324335.9,286047000.2,N
1711324355.8,286047000.7,N
1711324375.6,286047000.0,N
1711324395.5,286047002.7,N
1711324415.3,286047002.1,N
1711324435.1,286047001.3,N
1711324455.9,286047001.8,N
1711324475.7,286047004.3,Y
1711324495.6,286047002.6,P
1711324515.4,286047002.3,P
1711324535.2,286046999.8,N
1711324555.1,286047002.4,N
1711324556.0,286047002.4,N
1711324575.8,286047000.5,N
1711324595.6,286047000.1,N
1711324615.5,286047000.0,N
1711324635.3,286047000.6,N
1711324655.2,286046999.2,N
1711324675.9,286046998.7,N
1711324695.7,286046998.9,N
1711324715.6,286046998.9,N
1711324735.4,286046999.6,N
1711324755.2,286046998.9,N
1711324775.1,286046998.6,N
1711324776.0,286046998.6,N
1711324795.8,286047000.4,N
